• In Hungary
  • List of Countries
  • For 7 days
  • Water Temperature
  • Satellite Maps
  • Weather Map
  • News
  • Weather Widgets
  • user-avatar
    Login

    Hourly Weather Konarevka

    Today, 22 September, Saturday

    Time Temperature Precipitation Wind Pressure Humidity
    00:00 +9°C° 0 mm 2 mps 741 mmHg 89%
    01:00 +8°C° 0 mm 2 mps 741 mmHg 91%
    02:00 +8°C° 0 mm 2 mps 742 mmHg 91%
    03:00 +8°C° 0 mm 2 mps 742 mmHg 92%
    04:00 +7°C° 0 mm 2 mps 742 mmHg 92%
    05:00 +7°C° 0 mm 2 mps 743 mmHg 91%
    06:00 +7°C° 0 mm 2 mps 743 mmHg 90%
    07:00 +7°C° 0 mm 2 mps 743 mmHg 89%
    08:00 +9°C° 0 mm 2 mps 744 mmHg 81%
    09:00 +12°C° 0 mm 2 mps 744 mmHg 73%
    10:00 +12°C° 0 mm 3 mps 744 mmHg 65%
    11:00 +14°C° 0 mm 3 mps 744 mmHg 59%
    12:00 +16°C° 0 mm 3 mps 744 mmHg 53%
    13:00 +17°C° 0 mm 3 mps 744 mmHg 47%
    14:00 +17°C° 0 mm 3 mps 744 mmHg 48%
    15:00 +18°C° 0 mm 3 mps 744 mmHg 49%
    16:00 +18°C° 0 mm 3 mps 744 mmHg 50%
    17:00 +16°C° 0 mm 3 mps 744 mmHg 58%
    18:00 +15°C° 0 mm 2 mps 744 mmHg 66%
    19:00 +14°C° 0 mm 2 mps 744 mmHg 74%
    20:00 +13°C° 0 mm 2 mps 744 mmHg 77%
    21:00 +13°C° 0 mm 2 mps 744 mmHg 81%
    22:00 +13°C° 0 mm 2 mps 744 mmHg 84%
    23:00 +13°C° 0 mm 2 mps 744 mmHg 86%

    Tomorrow, 23 September, Sunday

    Time Temperature Precipitation Wind Pressure Humidity
    00:00 +13°C° 0 mm 2 mps 744 mmHg 87%
    01:00 +13°C° 0 mm 2 mps 744 mmHg 89%
    02:00 +14°C° 0.2 mm 2 mps 744 mmHg 90%
    03:00 +14°C° 0.2 mm 2 mps 744 mmHg 91%
    04:00 +14°C° 0.2 mm 2 mps 744 mmHg 91%
    05:00 +14°C° 0.1 mm 2 mps 744 mmHg 93%
    06:00 +14°C° 0.1 mm 2 mps 744 mmHg 94%
    07:00 +14°C° 0.1 mm 2 mps 744 mmHg 95%
    08:00 +15°C° 0 mm 2 mps 744 mmHg 91%
    09:00 +17°C° 0 mm 2 mps 744 mmHg 88%
    10:00 +19°C° 0 mm 1 mps 744 mmHg 84%
    11:00 +20°C° 0 mm 1 mps 744 mmHg 79%
    12:00 +21°C° 0 mm 1 mps 744 mmHg 75%
    13:00 +22°C° 0 mm 1 mps 744 mmHg 70%
    14:00 +22°C° 0 mm 1 mps 744 mmHg 69%
    15:00 +22°C° 0 mm 1 mps 744 mmHg 67%
    16:00 +22°C° 0 mm 1 mps 744 mmHg 66%
    17:00 +21°C° 0 mm 1 mps 744 mmHg 72%
    18:00 +19°C° 0 mm 1 mps 743 mmHg 79%
    19:00 +18°C° 0 mm 1 mps 743 mmHg 85%
    20:00 +16°C° 0 mm 1 mps 743 mmHg 86%
    21:00 +16°C° 0 mm 2 mps 743 mmHg 88%
    22:00 +15°C° 0 mm 2 mps 743 mmHg 89%
    23:00 +15°C° 0 mm 2 mps 743 mmHg 89%

    Day after tomorrow, 24 September, Monday

    Time Temperature Precipitation Wind Pressure Humidity
    00:00 +15°C° 0 mm 2 mps 743 mmHg 90%
    01:00 +15°C° 0 mm 2 mps 743 mmHg 91%
    02:00 +15°C° 0 mm 2 mps 743 mmHg 91%
    03:00 +14°C° 0 mm 2 mps 742 mmHg 91%
    04:00 +14°C° 0 mm 2 mps 742 mmHg 91%
    05:00 +14°C° 0 mm 2 mps 742 mmHg 91%
    06:00 +15°C° 0 mm 2 mps 742 mmHg 90%
    07:00 +15°C° 0 mm 2 mps 742 mmHg 89%
    08:00 +16°C° 0 mm 3 mps 742 mmHg 82%
    09:00 +18°C° 0 mm 4 mps 742 mmHg 74%
    10:00 +19°C° 0 mm 5 mps 742 mmHg 66%
    11:00 +20°C° 0 mm 5 mps 742 mmHg 60%
    12:00 +21°C° 0 mm 6 mps 742 mmHg 54%
    13:00 +23°C° 0 mm 6 mps 741 mmHg 48%
    14:00 +23°C° 0 mm 6 mps 741 mmHg 47%
    15:00 +23°C° 0 mm 6 mps 741 mmHg 46%
    16:00 +23°C° 0 mm 5 mps 741 mmHg 45%
    17:00 +21°C° 0 mm 5 mps 741 mmHg 49%
    18:00 +19°C° 0 mm 4 mps 741 mmHg 53%
    19:00 +17°C° 0 mm 3 mps 741 mmHg 57%
    20:00 +17°C° 0 mm 3 mps 740 mmHg 57%
    21:00 +16°C° 0 mm 3 mps 740 mmHg 58%
    22:00 +16°C° 0 mm 3 mps 740 mmHg 59%
    23:00 +15°C° 0 mm 4 mps 740 mmHg 57%

    25 September, Tuesday

    Time Temperature Precipitation Wind Pressure Humidity
    00:00 +15°C° 0 mm 4 mps 740 mmHg 56%
    01:00 +15°C° 0 mm 5 mps 740 mmHg 54%
    02:00 +15°C° 0 mm 5 mps 739 mmHg 53%
    03:00 +15°C° 0 mm 5 mps 739 mmHg 51%
    04:00 +15°C° 0 mm 5 mps 739 mmHg 49%
    05:00 +15°C° 0 mm 5 mps 739 mmHg 51%
    06:00 +15°C° 0 mm 5 mps 739 mmHg 52%
    07:00 +15°C° 0 mm 4 mps 739 mmHg 54%
    08:00 +16°C° 0 mm 5 mps 739 mmHg 53%
    09:00 +17°C° 0 mm 6 mps 739 mmHg 53%
    10:00 +19°C° 0 mm 6 mps 739 mmHg 52%
    11:00 +20°C° 0 mm 7 mps 739 mmHg 53%
    12:00 +21°C° 0 mm 8 mps 739 mmHg 54%
    13:00 +22°C° 0 mm 8 mps 739 mmHg 55%
    14:00 +21°C° 0.1 mm 7 mps 739 mmHg 57%
    15:00 +21°C° 0.1 mm 6 mps 739 mmHg 60%
    16:00 +20°C° 0.1 mm 5 mps 739 mmHg 62%
    17:00 +19°C° 0.1 mm 4 mps 739 mmHg 65%
    18:00 +18°C° 0.1 mm 4 mps 739 mmHg 68%
    19:00 +18°C° 0.1 mm 3 mps 739 mmHg 71%
    20:00 +17°C° 0 mm 3 mps 739 mmHg 70%
    21:00 +17°C° 0 mm 3 mps 739 mmHg 69%
    22:00 +17°C° 0 mm 3 mps 738 mmHg 69%
    23:00 +16°C° 0 mm 3 mps 738 mmHg 68%

    26 September, Wednesday

    Time Temperature Precipitation Wind Pressure Humidity
    00:00 +16°C° 0 mm 3 mps 738 mmHg 67%
    01:00 +16°C° 0 mm 3 mps 738 mmHg 66%
    02:00 +16°C° 0 mm 3 mps 738 mmHg 66%
    03:00 +15°C° 0 mm 4 mps 738 mmHg 66%
    04:00 +15°C° 0 mm 4 mps 738 mmHg 66%
    05:00 +14°C° 0.1 mm 4 mps 738 mmHg 67%
    06:00 +14°C° 0.1 mm 4 mps 738 mmHg 68%
    07:00 +14°C° 0.1 mm 4 mps 738 mmHg 69%
    08:00 +14°C° 0.3 mm 4 mps 739 mmHg 71%
    09:00 +13°C° 0.3 mm 4 mps 739 mmHg 72%
    10:00 +13°C° 0.3 mm 5 mps 739 mmHg 74%
    11:00 +12°C° 0.3 mm 4 mps 740 mmHg 74%
    12:00 +12°C° 0.3 mm 4 mps 740 mmHg 73%
    13:00 +11°C° 0.3 mm 4 mps 741 mmHg 72%
    14:00 +12°C° 0 mm 4 mps 741 mmHg 71%
    15:00 +12°C° 0 mm 4 mps 741 mmHg 69%
    16:00 +12°C° 0 mm 4 mps 742 mmHg 67%
    17:00 +11°C° 0.1 mm 4 mps 742 mmHg 71%
    18:00 +11°C° 0.1 mm 3 mps 742 mmHg 74%
    19:00 +10°C° 0.1 mm 3 mps 743 mmHg 78%
    20:00 +10°C° 0.1 mm 3 mps 743 mmHg 78%
    21:00 +10°C° 0.1 mm 3 mps 743 mmHg 78%
    22:00 +10°C° 0.1 mm 3 mps 743 mmHg 79%
    23:00 +9°C° 0 mm 3 mps 743 mmHg 79%

    27 September, Thursday

    Time Temperature Precipitation Wind Pressure Humidity
    00:00 +9°C° 0 mm 3 mps 743 mmHg 78%
    01:00 +9°C° 0 mm 3 mps 743 mmHg 78%
    02:00 +8°C° 0 mm 3 mps 743 mmHg 79%
    03:00 +8°C° 0 mm 3 mps 743 mmHg 80%
    04:00 +7°C° 0 mm 2 mps 743 mmHg 81%
    05:00 +7°C° 0 mm 3 mps 743 mmHg 82%
    06:00 +5°C° 0 mm 3 mps 743 mmHg 83%
    07:00 +5°C° 0 mm 3 mps 743 mmHg 84%
    08:00 +6°C° 0 mm 4 mps 743 mmHg 75%
    09:00 +7°C° 0 mm 5 mps 743 mmHg 66%
    10:00 +8°C° 0 mm 6 mps 743 mmHg 57%
    11:00 +9°C° 0 mm 6 mps 742 mmHg 54%
    12:00 +10°C° 0 mm 6 mps 742 mmHg 50%
    13:00 +11°C° 0 mm 6 mps 742 mmHg 46%
    14:00 +11°C° 0 mm 6 mps 742 mmHg 46%
    15:00 +11°C° 0 mm 6 mps 741 mmHg 46%
    16:00 +13°C° 0 mm 6 mps 741 mmHg 46%
    17:00 +11°C° 0 mm 6 mps 741 mmHg 49%
    18:00 +10°C° 0 mm 5 mps 741 mmHg 52%
    19:00 +8°C° 0 mm 4 mps 741 mmHg 55%
    20:00 +8°C° 0 mm 5 mps 741 mmHg 55%
    21:00 +8°C° 0 mm 5 mps 741 mmHg 54%
    22:00 +8°C° 0 mm 6 mps 741 mmHg 54%
    23:00 +8°C° 0 mm 6 mps 740 mmHg 55%
    Show more